Location: Ajisawe
(8.4333°N, 4.3833°E)
Time: 21:48:03
(UTC+00:00)

STARLINK-1147 - Pass Details

Date: 07 June 2020
Orbit: 548 x 551 km, 53.0° (Epoch: 10 July)

Event Time Altitude Azimuth Distance (km) Brightness Sun altitude
Exits shadow 04:33:11 16° 223° (SW) 1,451 5.2 -12.2°
Maximum altitude 04:36:21 69° 304° (NW) 583 3.6 -11.5°
Drops below altitude 10° 04:40:25 10° 28° (NNE) 1,800 7.1 -10.5°
Sets 04:42:39 0° 31° (NNE) 2,689 8.2 -10.0°
